Flag for U.S.A. Weather past 2 weeks in San Francisco, California, U.S.A.

49 °F

Passing clouds.

Feels Like: 42 °F
Forecast: 43 / 55 °F
Wind: 20 mph from North

Location: San Francisco International Airport

Current Time: Nov 27, 2015 at 5:53:31 AM

Latest Report: Nov 27, 2015 at 4:56 AM

Visibility: 10 mi

Pressure: 30.13 "Hg

Humidity: 43%

Dew point: 27 °F

Location of San FranciscoLocation

Historic Weather in San Francisco — Graph


San Francisco temperature yesterday

Maximum temperature yesterday: 53 °F (at 2:56 PM)
Minimum temperature yesterday: 42 °F (at 6:56 AM)
Average temperature yesterday: 48 °F

Past Weeks' High & Low Weather Summary

High68 °F (Nov 19, 2:56 PM)93% (Nov 15, 4:56 AM)30.36 "Hg (Nov 15, 4:56 AM)
Low42 °F (Nov 26, 6:56 AM)35% (Nov 16, 12:56 PM)29.77 "Hg (Nov 15, 5:56 AM)
Average54 °F71%30.07 "Hg
* Reported Nov 12 3:56 AM — Nov 27 3:56 AM, San Francisco, Weather by CustomWeather, © 2015

Note: Actual official high and low records may vary slightly from our data, if they occured in-between our weather recording intervals... More about our weather records


San Francisco weather history for previous 24 hours

Time TempWeatherWind HumidityBarometerVisibility
3:56 AM
Fri, Nov 27
50 °FClear.14 mph41%30.12 "Hg10 mi
2:56 AM50 °FClear.16 mph43%30.12 "Hg10 mi
1:56 AM50 °FClear.16 mph43%30.11 "Hg10 mi
12:56 AM50 °FClear.17 mph44%30.10 "Hg10 mi
11:56 PM
Thu, Nov 26
51 °FClear.18 mph42%30.09 "Hg10 mi
10:56 PM51 °FClear.23 mph42%30.09 "Hg10 mi
9:56 PM51 °FPassing clouds.20 mph41%30.10 "Hg10 mi
8:56 PM51 °FPassing clouds.13 mph42%30.09 "Hg10 mi
7:56 PM47 °FPassing clouds.6 mph59%30.09 "Hg10 mi
6:56 PM48 °FClear.6 mph56%30.09 "Hg10 mi
5:56 PM50 °FClear.6 mph43%30.09 "Hg10 mi
4:56 PM52 °FPassing clouds.No wind41%30.07 "Hg10 mi
3:56 PM53 °FPassing clouds.5 mph38%30.07 "Hg10 mi
2:56 PM53 °FPassing clouds.5 mph37%30.07 "Hg10 mi
1:56 PM52 °FPassing clouds.3 mph37%30.08 "Hg10 mi
12:56 PM52 °FPassing clouds.7 mph40%30.09 "Hg10 mi
11:56 AM50 °FPassing clouds.9 mph43%30.11 "Hg10 mi
10:56 AM49 °FSunny.10 mph46%30.14 "Hg10 mi
9:56 AM48 °FSunny.7 mph46%30.14 "Hg10 mi
8:56 AM45 °FPassing clouds.8 mph56%30.12 "Hg10 mi
7:56 AM46 °FPassing clouds.15 mph51%30.10 "Hg10 mi
6:56 AM42 °FPassing clouds.7 mph71%30.09 "Hg10 mi
5:56 AM47 °FClear.8 mph54%30.08 "Hg10 mi
Weather by CustomWeather, © 2015

See weather overviewHow to use our weather pages